Location: ??????
(41.3839°N, 22.7436°E)
Time: 04:12:17
(UTC+00:00)

Daily predictions for brighter satellites

Satellite Brightness Start Highest point End
(mag) Time Altitude Azimuth Time Altitude Azimuth Time Altitude Azimuth
Cosmos 1943 Rocket 3.5 02:25:02 34° NE 02:25:02 34° NE 02:28:26 10° NE
CENTAUR R/B 3.1 02:28:55 49° NE 02:28:55 49° NE 02:33:58 10° NE
Cosmos 2082 Rocket 4.3 02:33:43 16° SSE 02:33:43 16° SSE 02:34:47 10° SSE
NOSS 3-2 (A) 4.3 02:40:24 38° NNE 02:40:24 38° NNE 02:44:17 10° NNE
NOSS 3-2 (C) 3.5 02:46:05 65° E 02:46:05 65° E 02:51:42 10° NE
Cosmos 2344 3.5 02:53:31 60° NNW 02:53:31 60° NNW 03:00:39 10° NNE
Envisat 4.5 02:52:38 10° NNE 02:57:18 35° E 03:01:55 10° SSE
Meteor 2-3 Rocket 3.9 02:52:35 10° S 02:58:10 70° E 03:03:51 10° NNE
Cosmos 968 Rocket 3.7 03:02:25 49° SSE 03:03:37 66° ESE 03:08:43 10° NNE
USA 238 DEB 3.5 03:12:40 63° W 03:13:29 70° NW 03:20:18 10° NNE
USA 238 3.4 03:12:43 63° W 03:13:36 71° NW 03:20:24 10° NNE
Genesis I 4.1 03:14:31 47° ENE 03:14:31 47° ENE 03:18:16 10° SE
Cosmos 921 Rocket 4.1 03:13:45 31° NNE 03:15:15 43° ENE 03:19:30 10° SE
Meteor 1-26 Rocket 4.4 03:11:22 17° N 03:16:05 75° E 03:21:49 10° SSE
BREEZE-M DEB (TANK) 3.1 03:15:56 67° NNW 03:16:31 79° NNE 03:28:58 10° ESE
Gbstr 26 Del rocket 3.7 03:18:32 41° SSE 03:18:32 41° SSE 03:21:28 10° SE
Cosmos 1570 Rocket 3.9 03:21:57 66° SW 03:21:57 66° SW 03:26:54 10° S
USA 215 3.8 03:16:13 10° ESE 03:22:29 52° NNE 03:25:42 29° NNW
Cosmos 1816 Rocket 4.4 03:17:36 10° SSW 03:23:40 57° W 03:29:51 10° N
Cosmos 1812 4.0 03:21:51 24° NNE 03:23:41 39° ENE 03:27:18 10° SSE
Cosmos 2034 Rocket 4.0 03:24:10 53° W 03:24:18 54° W 03:30:23 10° SSW
Cosmos 1151 Rocket 4.1 03:24:41 11° N 03:28:47 44° ENE 03:32:57 10° SSE
Cosmos 1814 Rocket 4.5 03:32:11 40° SW 03:32:11 40° SW 03:36:01 10° S
Cosmos 2369 Rocket 2.1 03:31:36 10° SSW 03:37:11 90° ESE 03:42:49 10° NNE
Cosmos 1782 2.7 03:40:16 64° SW 03:40:16 64° SW 03:43:51 10° S
Meteor 1-31 Rocket 3.0 03:36:38 10° NNE 03:40:31 69° ESE 03:44:24 10° S
SJ-12 3.8 03:40:56 10° N 03:45:04 74° WNW 03:49:11 10° SSW
COSMO-SKYMED 1 2.5 03:41:08 10° SSE 03:45:28 87° ENE 03:48:36 19° NNW
Cosmos 1862 3.7 03:41:39 10° S 03:45:32 63° E 03:49:26 10° NNE
Cosmos 1634 Rocket 3.9 03:40:27 10° N 03:46:44 77° W 03:52:56 10° S
MOS 1-B Rocket 3.9 03:42:05 10° S 03:48:33 66° WSW 03:54:14 10° NNW
Tsikada Rocket 4.2 03:45:27 10° SSW 03:51:19 44° WNW 03:57:17 10° N
Cosmos 1867 3.9 03:50:15 38° W 03:51:28 43° WSW 03:56:34 10° S
Cosmos 2208 Rocket 4.4 03:52:17 35° WNW 03:53:48 43° WSW 03:58:50 10° S
H-2A R/B 2.7 03:50:35 10° N 03:54:12 54° WNW 03:57:52 10° SSW
Helios 1B 4.4 03:50:14 10° S 03:54:32 70° WSW 03:57:21 21° NNW
Cosmos 1656 Rocket 3.5 03:55:54 10° SSW 04:01:18 80° WNW 04:06:46 10° NNE
CZ-4B R/B 4.3 03:59:12 10° NNE 04:02:31 35° E 04:05:49 10° SSE
TSX-5 4.4 03:58:10 18° NNW 04:02:33 75° WSW 04:07:07 10° SSE
Cosmos 1503 Rocket 4.2 03:57:38 10° SSW 04:02:52 77° ESE 04:08:12 10° NNE
CZ-4B R/B 4.4 04:04:37 10° E 04:06:04 12° ENE 04:07:30 10° NE
CZ-2C R/B 2.7 04:01:09 10° S 04:06:35 61° W 04:11:58 10° NNW
Cosmos 1943 Rocket 3.1 04:06:39 25° WNW 04:06:59 25° NW 04:11:39 10° N
CZ-4C R/B 2.6 04:07:02 10° SSE 04:10:11 89° WSW 04:12:32 17° NNW
Cosmos 1486 Rocket 4.1 04:05:23 10° SW 04:10:33 53° WNW 04:15:45 10° N
Cosmos 2180 Rocket 4.5 04:10:42 10° N 04:16:54 88° E 04:23:02 10° S
CENTAUR R/B 3.5 04:16:08 21° WNW 04:18:39 27° NW 04:24:36 10° NNE
SL-8 R/B 4.2 04:16:23 21° NW 04:19:20 52° NNE 04:24:01 10° E
Cosmos 1515 Rocket 4.0 04:17:10 10° N 04:21:30 62° E 04:25:48 10° SSE
SJ 16-02 2.5 04:23:31 10° S 04:27:43 47° ESE 04:31:56 10° NNE
NOAA 11 4.1 04:23:06 10° N 04:28:35 75° WNW 04:34:02 10° SSW
NOAA 12 4.2 04:29:13 10° NNE 04:34:30 80° ESE 04:39:44 10° S
Meteor 2-8 Rocket 4.4 04:29:23 10° NNW 04:35:28 65° W 04:41:29 10° S
Envisat 3.8 04:31:54 10° N 04:36:09 28° WNW 04:40:24 10° WSW
NOSS 3-2 (C) 4.4 04:33:35 15° W 04:37:05 25° NW 04:42:22 10° NNE
Cosmos 1340 Rocket 3.5 04:33:37 10° S 04:37:28 57° E 04:41:23 10° NNE
Meteor 2-6 Rocket 4.4 04:33:02 10° NNW 04:38:13 47° W 04:43:20 10° SSW
DELTA 2 R/B (1) 3.9 04:33:17 10° WSW 04:38:47 68° S 04:44:18 10° E
Cosmos 1500 Rocket 4.0 04:34:55 10° S 04:39:19 68° E 04:43:47 10° NNE
Cosmos 2098 Rocket 4.0 04:37:54 10° SW 04:41:00 23° WNW 04:44:42 10° NNW
ATLAS 3B R/B 3.3 04:38:47 10° SSW 04:45:07 60° ESE 04:51:45 10° NE
SL-27 R/B 2.9 04:42:05 10° NNW 04:45:40 65° ENE 04:49:10 10° SSE
Cosmos 1939 Rocket 2.8 04:42:08 10° NNE 04:46:05 90° S 04:49:57 10° SSW
Sich 1 4.5 04:49:01 10° SSE 04:53:02 41° E 04:57:03 10° NNE
H-2A R/B 2.0 04:49:31 10° S 04:53:44 76° WSW 04:58:06 10° NNW
Meteor 1-10 Rocket 4.4 04:48:54 10° NNW 04:54:12 48° W 04:59:30 10° SSW
Okean O Rocket 4.5 04:51:28 10° NE 04:54:54 22° E 04:58:18 10° SE
ATLAS 5 CENTAUR R/B 1.4 04:51:21 10° SSW 04:55:06 79° ESE 04:59:17 10° NE
Cosmos 1174 3.2 04:53:18 10° SSW 04:56:16 78° ESE 04:59:18 10° NNE
Cosmos 1833 4.5 04:52:48 10° NW 04:58:18 50° WSW 05:03:48 10° S
DNEPR-1 R/B 4.4 04:53:40 10° NW 04:58:26 49° WSW 05:04:09 10° SSE
ADEOS 4.2 04:55:02 10° N 04:59:43 34° WNW 05:04:22 10° SW
USA 215 3.7 04:59:11 10° SSE 05:05:29 50° SW 05:11:49 10° WNW
CZ-2C R/B 3.4 05:03:20 10° N 05:07:51 40° WNW 05:12:33 10° SW
BREEZE-M DEB (TANK) 3.2 05:09:46 10° WSW 05:19:38 56° NNW 05:22:43 10° NE
